EHI
0 0 0 0 0 0 0 0 0 0 0 0 0 0 0 0 0 0 0 0 0 0 0 0 0 0 0 0 0 0 0 0 0 0 0 0 0 0 0 0 0 0 0
0 0 0 0 0 0 0 0 0 0 0 0 0 0 0 0 0 0 0 0 0 0 0 0 0 0 0 0 0 0 0 0 0 0 0 0 0 0 0 0 0 0 0
0 0 0 0 0 0 0 0 0 0 0 0 0 0 0 0 0 0 0 0 0 0 0 0 0 0 0 0 0 0 0 0 0 0 0 0 0 0 0 0 0 0 0
0 0 0 0 0 0 0 0 0 0 0 0 0 0 0 0 0 0 0 0 0 0 0 0 0 0 0 0 0 0 0 0 0 0 0 0 0 0 0 0 0 0 0
0 0 0 0 0 0 0 0 0 0 0 0 0 0 0 0 0 0 0 0 0 0 0 0 0 0 0 0 0 0 0 0 0 0 0 0 0 0 0 0 0 0 0
0 0 0 0 0 0 0 0 0 0 0 0 0 0 0 0 0 0 0 0 0 0 0 0 0 0 0 0 0 0 0 0 0 0 0 0 0 0 0 0 0 0 0
0 0 0 0 0 0 0 0 0 0 0 0 0 0 0 0 0 0 0 0 0 0 0 0 0 0 0 0 0 0 0 0 0 0 0 0 0 0 0 0 0 0 0
0 0 0 0 0 0 0 0 0 0 0 0 0 0 0 0 0 0 0 0 0 0 0 0 0 0 0 0 0 0 0 0 0 0 0 0 0 0 0 0 0 0 0
0 0 0 0 0 0 0 0 0 0 0 0 0 0 0 0 0 0 0 0 0 0 0 0 0 0 0 0 0 0 0 0 0 0 0 0 0 0 0 0 0 0 0
0 0 0 0 0 0 0 0 0 0 0 0 0 0 0 0 0 0 0 0 0 0 0 0 0 0 0 0 0 0 0 0 0 0 0 0 0 0 0 0 0 0 0
0 0 0 0 0 0 0 0 0 0 0 0 0 0 0 0 0 0 0 0 0 0 0 0 0 0 0 0 0 0 0 0 0 0 0 0 0 0 0 0 0 0 0
0 0 0 0 0 0 0 0 0 0 0 0 0 0 0 0 0 0 0 0 0 0 0 0 0 0 0 0 0 0 0 0 0 0 0 0 0 0 0 0 0 0 0
0 0 0 0 0 0 0 0 0 0 0 0 0 0 0 0 0 0 0 0 0 0 0 0 0 0 0 0 0 0 0 0 0 0 0 0 0 0 0 0 0 0 0
0 0 0 0 0 0 0 0 0 0 0 0 0 0 0 0 0 0 0 0 0 0 0 0 0 0 0 0 0 0 0 0 0 0 0 0 0 0 0 0 0 0 0
0 0 0 0 0 0 0 0 0 0 0 0 0 0 0 0 0 0 0 0 0 0 0 0 0 0 0 0 0 0 0 0 0 0 0 0 0 0 0 0 0 0 0
0 0 0 0 0 0 0 0 0 0 0 0 0 0 0 0 0 0 0 0 0 0 0 0 0 0 0 0 0 0 0 0 0 0 0 0 0 0 0 0 0 0 0
1 1 0 0 0 0 0 0 0 0 0 0 0 0 0 0 0 0 0 0 0 0 0 0 0 0 0 0 0 0 0 0 0 0 0 0 0 0 0 0 0 0 0
7 5 2 1 0 0 1 1 0 0 0 0 0 0 0 0 0 0 0 0 0 0 0 0 0 0 0 0 0 0 0 0 0 0 0 0 0 0 0 0 0 0 0
17 13 8 6 3 1 1 1 0 0 0 0 0 0 0 0 0 0 0 0 0 0 0 0 0 0 0 0 0 0 0 0 0 0 0 0 0 0 0 0 0 0 0
23 22 20 18 14 11 12 10 7 4 2 1 1 0 0 0 0 0 0 0 0 0 0 0 0 0 0 0 0 0 0 0 0 0 0 0 0 0 0 0 0 0 0
21 23 28 32 32 34 38 36 27 18 9 4 2 1 0 0 0 0 0 0 0 0 0 0 0 0 0 0 0 0 0 0 0 0 0 0 0 0 0 0 0 0 0
19 20 26 35 44 51 58 61 53 37 21 9 4 1 0 0 0 0 0 0 0 0 0 1 0 0 0 0 0 0 0 0 0 0 0 0 0 0 0 0 0 0 0
20 20 22 27 37 48 58 64 61 48 31 16 5 1 0 0 0 0 0 0 0 0 0 0 0 0 0 0 0 0 0 0 0 0 0 0 0 0 0 0 0 0 0
19 18 18 18 23 34 45 52 53 47 33 17 6 1 0 0 1 0 0 0 0 0 0 0 0 1 1 1 0 0 0 0 0 0 0 0 0 0 0 0 0 0 0
14 13 13 14 15 20 29 38 43 40 27 12 3 0 0 0 0 0 0 0 0 0 0 0 0 0 0 0 0 0 0 0 0 0 0 0 0 0 0 0 0 0 0
11 9 10 13 13 14 20 30 37 33 20 8 1 0 0 0 0 0 0 0 0 0 0 0 0 0 0 0 0 0 0 0 0 0 0 0 0 0 0 0 0 0 0
Wind_Speed
7 8 17 17 17 16 15 15 15 15 15 15 15 15 15 14 13 13 12 10 10 9 9 9 9 9 9 10 10 10 10 10 10 10 10 9 9 9 9 10 10 8 10
11 11 18 18 17 16 15 15 14 14 14 14 14 14 13 13 13 12 11 10 10 9 8 8 8 8 8 9 9 9 9 8 8 8 8 7 7 7 7 9 9 6 10
14 11 15 18 17 16 15 14 14 13 13 13 13 12 12 12 11 11 11 10 10 9 8 8 8 8 8 8 8 8 7 7 7 7 6 3 3 5 6 7 8 9 9
14 10 12 18 18 16 15 14 13 13 12 12 12 11 11 10 10 10 10 9 9 8 8 7 7 7 7 7 7 7 6 6 5 5 3 1 1 3 5 5 7 8 9
10 9 13 20 18 17 15 14 13 13 12 12 11 11 10 10 9 9 9 8 7 7 7 6 6 6 6 7 7 7 6 5 5 4 3 2 1 3 5 6 7 7 8
9 8 12 20 18 17 16 15 14 13 12 11 11 10 10 9 9 8 8 7 6 6 5 5 5 5 5 6 6 6 6 6 5 2 2 3 3 6 8 9 10 10 10
9 7 10 18 18 17 16 15 14 13 12 11 11 10 9 9 8 8 7 6 6 5 4 4 4 5 5 5 6 6 6 6 4 3 4 4 5 8 10 12 13 12 12
9 7 8 17 17 16 16 16 15 14 13 12 11 10 9 8 8 7 7 6 6 5 5 4 4 5 5 6 6 6 7 7 5 4 4 5 8 10 11 13 14 14 14
7 6 6 8 11 15 16 15 14 13 12 12 11 10 9 9 8 8 7 7 6 6 6 5 5 6 6 6 7 8 8 8 6 4 5 5 8 10 11 12 14 15 15
6 5 5 6 6 6 8 14 14 13 12 11 11 10 10 9 9 8 7 7 8 8 8 8 8 8 8 8 9 9 10 9 6 6 5 6 11 12 12 13 14 15 15
8 5 5 5 5 5 5 9 11 12 11 10 9 11 9 4 3 4 7 9 10 10 10 10 10 10 9 9 10 11 10 4 5 5 5 9 12 13 13 13 13 15 16
13 11 6 6 6 5 6 4 3 3 4 4 3 4 3 3 3 5 5 10 12 12 12 12 12 10 8 4 7 10 5 6 6 6 6 12 13 14 14 13 13 15 16
12 12 9 7 6 6 4 3 2 2 2 3 4 4 2 2 2 3 2 5 6 8 6 7 6 4 4 4 4 5 7 6 5 6 8 13 13 14 14 13 13 14 15
10 12 10 9 6 6 4 3 3 3 2 3 4 4 3 2 3 3 3 4 4 3 4 4 3 4 5 6 7 7 8 6 6 5 7 14 14 15 15 14 13 13 13
12 12 10 9 8 7 5 3 4 4 4 4 3 4 5 4 4 4 4 4 5 4 4 4 4 5 6 6 6 7 8 8 8 8 6 13 15 14 15 15 14 13 12
12 12 10 10 9 7 6 5 4 5 4 4 5 6 7 6 5 5 5 5 5 4 4 4 5 4 5 5 7 7 8 8 8 8 8 9 14 14 15 15 15 13 12
11 11 10 11 9 8 8 7 6 5 5 5 6 7 8 7 7 6 5 5 5 4 4 4 4 4 4 5 6 7 6 7 8 8 8 7 7 12 15 15 14 13 13
9 9 10 10 10 10 9 7 6 5 6 6 6 6 8 9 8 6 6 6 5 4 3 3 3 3 4 4 5 6 5 6 8 8 8 7 6 7 10 14 14 14 14
11 10 10 10 10 11 10 8 7 6 6 6 5 5 7 8 8 7 6 6 4 4 4 4 4 3 4 5 5 6 6 6 7 8 8 9 8 7 7 9 13 13 14
10 10 10 10 9 9 7 5 4 4 4 4 5 5 6 6 7 7 6 6 5 4 4 4 4 4 4 4 5 6 6 7 7 7 9 8 7 7 7 7 6 8 12
7 8 9 9 7 5 4 4 4 5 4 4 5 6 6 6 6 6 5 5 5 5 6 5 3 4 4 2 2 5 5 6 7 7 6 6 7 6 5 6 5 5 5
4 5 5 5 5 6 5 4 3 3 3 3 3 4 4 4 4 5 5 5 5 4 5 5 4 2 2 2 2 3 4 5 4 4 3 4 5 4 4 5 5 5 5
1 2 3 4 4 4 4 2 1 0 0 1 2 2 2 3 3 3 4 3 3 4 4 4 4 5 4 3 4 4 3 4 4 4 3 3 3 3 4 4 5 5 5
2 2 3 4 4 4 4 3 4 4 4 4 3 1 1 1 2 2 2 2 2 2 3 4 3 4 4 5 3 4 6 4 4 5 3 3 4 4 4 4 4 5 5
2 2 3 4 4 4 4 6 6 5 4 2 1 2 1 1 1 1 1 1 1 1 2 2 2 3 3 4 4 3 4 4 6 6 6 4 3 4 4 5 4 4 4
2 2 2 2 3 3 4 4 6 6 5 4 3 3 1 1 1 2 2 2 1 1 0 1 1 2 2 3 3 3 3 3 3 4 5 5 5 4 4 4 3 3 3
Wind_Direction
165 163 160 154 149 144 137 132 130 128 127 127 128 130 132 135 137 139 140 139 137 134 124 112 105 103 105 108 111 114 118 119 119 117 117 119 120 120 121 119 114 109 111
153 160 161 157 154 150 144 139 137 136 134 132 132 133 135 138 140 142 142 143 143 140 133 124 117 116 116 117 117 118 122 126 126 122 116 116 126 130 132 131 129 128 123
149 158 161 160 158 156 152 147 145 144 141 138 136 136 137 140 143 144 144 143 144 143 140 137 133 130 129 129 129 128 129 132 134 129 110 84 114 148 151 148 148 142 137
150 155 159 162 162 161 159 156 155 153 148 144 142 141 142 144 147 150 149 147 146 146 144 145 146 146 144 145 146 146 145 146 150 143 127 135 135 156 170 172 169 164 156
147 152 164 164 165 165 165 165 164 162 157 154 152 151 150 152 155 156 157 158 158 156 155 155 157 160 162 163 165 167 169 172 183 173 171 198 235 222 203 200 198 193 181
146 153 169 166 168 169 171 172 172 171 167 164 162 161 160 160 161 163 165 169 174 175 176 175 176 178 184 186 186 189 192 199 206 213 221 230 232 240 234 221 214 211 202
150 159 171 169 171 173 175 177 179 178 176 174 172 172 170 169 170 171 174 179 185 192 197 200 203 204 210 214 215 216 217 224 213 220 239 248 250 253 251 233 221 217 213
154 158 167 174 175 177 179 181 183 184 182 181 181 182 184 184 184 184 188 192 197 203 210 216 222 227 231 235 236 238 239 243 243 229 234 246 259 264 259 238 223 220 218
154 155 166 173 179 182 184 186 188 188 188 187 188 191 194 198 201 202 206 212 217 222 227 234 240 247 249 250 252 253 253 254 251 237 247 249 262 269 266 246 227 223 222
158 163 167 168 171 177 186 192 192 194 193 192 194 199 203 209 212 217 220 229 235 240 244 249 252 255 259 260 261 263 265 267 261 252 251 255 263 267 267 254 236 229 227
179 181 176 173 172 171 179 196 195 197 197 197 202 207 209 214 225 236 239 242 249 254 256 257 258 258 260 263 266 268 272 262 261 261 257 259 263 265 266 261 246 237 233
189 192 188 183 177 173 186 187 182 186 187 191 188 207 197 190 222 240 260 260 264 268 269 266 261 261 263 260 267 273 270 267 267 265 262 263 264 264 264 262 253 244 239
190 192 194 191 183 180 183 170 171 172 175 188 195 202 199 201 229 251 266 275 279 284 283 280 278 264 257 255 258 261 265 270 268 267 267 269 268 268 268 266 261 254 247
186 196 194 191 189 190 185 181 179 182 190 200 204 203 200 214 229 241 251 260 266 267 269 266 260 261 263 263 263 265 266 264 264 264 267 272 271 270 273 273 268 261 251
190 195 193 192 194 193 192 195 190 196 205 209 210 210 206 217 231 236 248 253 256 252 250 254 254 261 267 270 268 266 266 265 265 263 265 271 272 270 272 274 269 259 250
193 195 192 195 197 193 198 202 203 202 208 210 219 222 215 220 227 232 243 248 250 241 235 238 248 256 265 269 272 269 268 269 266 265 263 267 267 266 267 267 263 256 251
195 193 192 198 196 197 205 210 212 210 206 215 225 225 222 221 224 228 237 244 245 234 231 238 250 252 259 262 268 271 270 268 269 268 266 260 262 263 262 259 255 251 249
190 191 196 200 196 200 205 210 215 213 213 223 227 225 224 223 222 223 231 240 236 223 220 227 235 245 256 261 269 275 274 272 272 270 268 262 255 255 256 255 252 247 247
191 190 194 198 196 201 205 209 213 213 216 225 225 225 226 226 222 217 227 233 221 214 219 228 225 222 249 259 267 274 273 271 272 275 272 267 258 251 248 251 250 250 250
193 195 199 202 204 200 203 206 210 216 220 218 218 221 222 220 215 209 219 222 208 212 223 223 232 230 240 258 276 279 275 272 271 269 271 273 268 261 252 248 247 250 250
197 200 205 206 211 196 186 194 196 208 212 214 216 214 212 211 207 203 209 211 205 215 226 225 230 245 251 238 271 287 283 272 267 267 268 273 275 273 263 251 244 244 249
206 209 212 215 218 207 204 200 196 198 205 208 209 206 207 207 205 206 208 211 210 218 230 230 222 239 251 206 224 285 302 309 290 272 274 272 280 284 277 267 250 245 247
260 228 219 213 213 218 218 199 172 172 219 227 236 221 213 207 209 208 211 210 206 206 230 241 230 237 259 252 210 229 258 271 306 296 283 278 286 291 288 283 269 251 244
292 264 215 194 203 212 205 203 210 219 235 228 222 218 227 198 200 210 210 209 212 210 229 248 240 234 247 264 247 226 234 242 266 295 296 290 292 286 285 285 280 271 256
281 258 218 195 198 200 198 201 207 220 231 222 190 149 152 95 93 122 148 170 196 215 243 259 260 246 240 256 260 254 250 244 237 255 283 293 297 279 276 276 275 278 276
297 287 267 225 219 204 193 193 199 197 188 178 171 157 151 99 60 49 68 76 75 62 343 298 284 275 263 265 269 262 260 261 257 250 266 279 286 282 278 276 274 281 286